Regional Weather Roundup
Issued by NWS Charleston, SC

Current Version | Previous Version | Text Only | Print | Product List | Glossary Off
Versions: 1 2 3 4 5 6 7 8 9 10 11 12 13 14 15 16 17 18 19 20 21 22 23 24 25 26 27 28 29 30 31 32 33 34 35 36 37 38 39 40 41 42 43 44 45 46 47 48 49 50

000
ASUS42 KCHS 241013
RWRCHS

REGIONAL WEATHER ROUNDUP
NATIONAL WEATHER SERVICE CHARLESTON SC
600 AM EDT SAT SEP 24 2016

NOTE: "FAIR" INDICATES FEW OR NO CLOUDS BELOW 12,000 FEET WITH NO
SIGNIFICANT WEATHER AND/OR OBSTRUCTIONS TO VISIBILITY.

NOT ALL STATIONS ARE QUALITY CONTROLLED. USE DATA WITH CAUTION...
ESPECIALLY DEWPOINT OBSERVATIONS.

SCZ027-030-031-034>040-042>050-241100-
...SOUTHEAST SOUTH CAROLINA...

CITY           SKY/WX    TMP DP  RH WIND       PRES   REMARKS
N CHARLESTON   PTCLDY    72  70  93 N6        30.01R
WATERFRONT PRK   N/A     74  73  96 NW5       29.98R
MOUNT PLEASANT FAIR      72  72 100 CALM      30.01R
JOHNS ISLAND   FAIR      73  73 100 NW7       30.01R
PINOPOLIS        N/A     75  73  94 N7        29.94R
MONCKS CORNER  FAIR      70  70 100 CALM      30.02R FOG
SUMMERVILLE    FOG       72  72 100 CALM      30.03R VSB 1
BEAUFORT MCAS  CLOUDY    74  72  93 NW5       30.02R
BEAUFORT ARPT  FAIR      73  72  94 NW3       30.01S
HILTON HEAD IS NOT AVBL
WALTERBORO     MOSUNNY   72  72 100 NW3       30.03S
ALLENDALE      CLOUDY    72  72 100 CALM      30.03S

...SOUTHERN MIDLANDS AND PEE DEE...

CITY           SKY/WX    TMP DP  RH WIND       PRES   REMARKS
GEORGETOWN     FAIR      70  68  94 CALM      30.01S
KINGSTREE      FAIR      68  66  94 CALM      30.02R
ORANGEBURG     CLEAR     71  70  96 CALM      30.04R
BARNWELL       NOT AVBL
AIKEN          FAIR      64  63  94 CALM      30.08S
MANNING        FAIR      68  55  64 CALM      30.02S
COLUMBIA       CLEAR     70  67  90 W3        30.03R
SUMTER         CLEAR     70  68  93 NE2       30.01R
FLORENCE       CLEAR     71  69  93 N6        30.03R
MYRTLE BEACH   NOT AVBL
N MYRTLE BEACH PTCLDY    71  70  96 N5        29.99S

$$

GAZ063-065-086>088-099>101-113>116-118-119-134>141-150-241100-
...SOUTHEAST GEORGIA...

CITY           SKY/WX    TMP DP  RH WIND       PRES   REMARKS
SAVANNAH ARPT  PTCLDY    72  69  90 NW3       30.03R
HUNTER AAF     CLEAR     73  73 100 NW2       30.00R
FORT STEWART   CLOUDY    71  68  93 CALM      30.01R
STATESBORO     CLOUDY    72  71  98 CALM      30.04R
SYLVANIA       NOT AVBL
CLAXTON        FAIR      67  67 100 CALM      30.03S

...CSRA...CENTRAL AND FAR SOUTHEAST GEORGIA...

CITY           SKY/WX    TMP DP  RH WIND       PRES   REMARKS
THOMSON        CLEAR     66  66 100 CALM      30.10R
AUGUSTA-BUSH   FOG       66  65  96 CALM      30.04R VSB 1/2
AUGUSTA-DANIEL CLEAR     72  67  84 N6        30.05S
SWAINSBORO     FAIR      68  64  88 CALM      30.06R
VIDALIA        CLEAR     70  70 100 CALM      30.04S
EASTMAN        PTSUNNY   67  67 100 CALM      30.07R FOG
HAZLEHURST     FAIR      71  71 100 CALM      30.03R
ALMA           CLEAR     69  68  96 CALM      30.03S
WAYCROSS       FOG       72  72 100 CALM      30.03S VSB 3/4
JESUP          FAIR      72  72 100 CALM      30.03S
BAXLEY         FAIR      70  70 100 CALM      30.04R
BRUNSWICK      CLEAR     72  72 100 CALM      30.03S FOG
SAINT SIMONS   CLEAR     75  73  93 CALM      30.02R

$$

SCZ027-028-034-036>038-045-046-048>050-GAZ119-141-241100-
...LAKE AND SUPPLEMENTAL COASTAL OBSERVATIONS...

STATION/POSITION TIME  TEMP    WIND        PRES    WAVE   SWELL
                       AIR SEA DIR/SP/G            HT/PER HT/PER/DIR
                 (UTC) (F)     (DEG/KT/KT) (MB)    (FT/S) (FT/S/D)
WINYAH BAY       NOT AVBL
LAKE MURRAY      0920   71     320/  1/  3 1016.6
ACE BASIN NERRS  0845   72        CALM     1016.0
FORT PULASKI     0942   74 81  310/  5/  5 1016.9R
SAPELO ISLAND    0900   76     300/  7     1016.0

$$

ANZ835-935-AMZ111-154-330-350-352-354-370-450-454-472-241100-
...C-MAN AND BUOY OBSERVATIONS...

STATION/POSITION TIME  TEMP    WIND        PRES    WAVE   SWELL
                       AIR SEA DIR/SP/G            HT/PER HT/PER/DIR
                 (UTC) (F)     (DEG/KT/KT) (MB)    (FT/S) (FT/S/D)
BUOY 41004       0950   79 82  350/  6/  8 1014.9R   3/11   3/100/11
BUOY 41008       0950   79 82  310/ 12/ 14 1015.9R   3/11   3/ 60/11
FOLLY BEACH CMAN 0900   75     350/  4/  6 1015.9R
CAPERS NEARSHORE 0908   75 81  360/ 10/ 12 1015.3R
FRIPP NEARSHORE  0908   76 81  330/  8/ 10 1015.8R


STATION/POSITION TIME  TEMP    WIND        PRES    WAVE   SWELL
                       AIR SEA DIR/SP/G            HT/PER HT/PER/DIR
                 (UTC) (F)     (DEG/KT/KT) (MB)    (FT/S) (FT/S/D)
5E ST. MARYS GA  0931      82                N/A     3/12   2/100/12
FRYING PAN BUOY  0950   80 82   10/  6/  6 1015.0R   4/10   3/110/10
BUOY 41025       0950   76 81   10/ 10/ 12 1015.1R   5/11   5/120/11
CAPE LOOKOUT NC  0900   76      10/  7/  8 1014.9S
BUOY 41002       0950   82 83  250/  8/ 10 1014.9R   5/11   5/100/11
BUOY 41010       NOT AVBL
ST AUGUSTINE FL  1000   75 83  250/  5/  5 1017.4R


$$




USA.gov is the U.S. government's official web portal to all federal, state and local government web resources and services.